sat.trackr.live / text

‹ back to catalog

STARLINK-34242

NORAD 64727 · 2025-144D

PAYLOAD ACTIVE UNKNOWN

§ Identity

Operator
Country
US
Launch date
2025-07-02
Launch site
AFETR
Launch vehicle
Mass (kg)
RCS (m²)

Purposes: comms

External: N2YO · Heavens-Above · Gunter

§ Orbital elements

Epoch: 2026-05-25T03:26:51.482688Z

Period
94.11 min
Inclination
53.1576°
Eccentricity
0.0001096
Mean motion
15.30198443 rev/d
Perigee alt
474.5 km
Apogee alt
476.0 km
Semi-major
6,853.4 km
B*
3.2554e-4
RAAN
186.1831°
Arg perigee
58.0334°
Mean anomaly
302.0773°
Rev number
5,141

§ Raw data

STARLINK-342421 64727U 25144D   26145.14365142  .00009294  00000+0  32554-3 0  99912 64727  53.1576 186.1831 0001096  58.0334 302.0773 15.30198443 51413

JSON: /api/v1/satellites/64727 · /tle

For live sub-satellite position, see the globe view (requires WebGL).

§ Visibility from observer

Set your observer location to see the next 7 days of passes ≥ 10°. The values pass through the URL so the page stays shareable.

No JS? Fill the form by hand. The geolocation button needs JavaScript.